Location: Ramillies
(50.6368°N, 4.9145°E)
Time: 12:26:22
(UTC+02:00)

ISS - Visible Passes

Search period start: 13 May 2021 00:00
Search period end: 23 May 2021 00:00
Orbit: 417 x 422 km, 51.6° (Epoch: 13 May)

Date Brightness Start Highest point End Pass type
(mag) Time Alt. Az. Time Alt. Az. Time Alt. Az.
13 May -3.7 02:05:02 78° N 02:05:02 78° N 02:08:22 10° E visible
13 May -3.8 03:38:30 10° WNW 03:41:54 87° NNE 03:45:17 10° ESE visible
14 May -2.8 01:18:38 40° ENE 01:18:38 40° ENE 01:20:55 10° ENE visible
14 May -3.7 02:51:32 13° W 02:54:27 77° N 02:57:50 10° E visible
14 May -3.5 04:27:55 10° W 04:31:10 44° SSW 04:34:25 10° SE visible
14 May -2.5 22:50:59 10° SSW 22:53:38 22° SE 22:55:35 14° E visible
15 May -3.9 00:26:43 10° WSW 00:30:05 76° SSE 00:33:28 10° ENE visible
15 May -3.6 02:03:35 10° W 02:06:58 72° N 02:10:21 10° E visible
15 May -3.8 03:40:27 10° WNW 03:43:48 60° SSW 03:47:08 10° ESE visible
15 May -2.0 22:04:23 10° S 22:06:23 15° SE 22:08:24 10° ESE visible
15 May -3.8 23:39:21 10° WSW 23:42:41 58° SSE 23:46:01 10° ENE visible
16 May -3.6 01:16:07 10° W 01:19:29 73° N 01:22:52 10° E visible
16 May -3.9 02:53:00 10° WNW 02:56:23 78° SSW 02:59:46 10° ESE visible
16 May -2.6 04:30:09 10° W 04:32:52 22° SW 04:35:34 10° SSE visible
16 May -3.4 22:52:06 10° SW 22:55:18 43° SSE 22:58:31 10° E visible
17 May -3.7 00:28:38 10° W 00:32:01 78° N 00:35:24 10° E visible
17 May -3.8 02:05:33 10° WNW 02:08:56 87° NNE 02:12:20 10° ESE visible
17 May -3.1 03:42:30 10° W 03:45:33 32° SSW 03:48:36 10° SSE visible
17 May -2.9 22:04:57 10° SSW 22:07:57 31° SSE 22:10:58 10° E visible
17 May -3.8 23:41:11 10° WSW 23:44:33 88° NNW 23:47:57 10° ENE visible
18 May -3.7 01:18:05 10° W 01:21:29 77° N 01:22:56 31° E visible
18 May -1.6 02:54:58 10° W 02:55:49 16° W 02:55:49 16° W visible
18 May -3.9 22:53:45 10° WSW 22:57:07 76° SSE 23:00:29 10° ENE visible
19 May -3.6 00:30:37 10° W 00:34:00 72° N 00:36:31 17° E visible
19 May -2.6 02:07:29 10° WNW 02:09:26 31° W 02:09:26 31° W visible
19 May -3.7 22:06:23 10° WSW 22:09:42 59° SSE 22:13:02 10° ENE visible
19 May -3.6 23:43:08 10° W 23:46:31 73° N 23:49:53 10° E visible
20 May -3.9 01:20:01 10° WNW 01:23:16 75° SW 01:23:16 75° SW visible
20 May -3.6 22:55:40 10° W 22:59:02 78° N 23:02:25 10° E visible
21 May -3.8 00:32:34 10° WNW 00:35:57 87° NNE 00:37:12 36° E visible
21 May -1.4 02:09:31 10° W 02:10:08 14° W 02:10:08 14° W visible
21 May -3.7 22:08:11 10° WSW 22:11:34 88° N 22:14:58 10° ENE visible
21 May -3.7 23:45:06 10° W 23:48:30 77° N 23:51:10 15° E visible
22 May -2.6 01:21:59 10° W 01:24:06 31° WSW 01:24:06 31° WSW visible
22 May -3.5 22:57:38 10° W 23:01:00 73° N 23:04:23 10° E visible
